• en France
  • Liste des pays
  • À 7 jours
  • Température de l'eau
  • Carte satellitaire
  • Carte météo
  • Widgets météo
  • user-avatar
    Se connecter

    Météo par heure à Paris

    Ce jour, 20 Novembre, Lundi

    Heure Température Précipitation Vent Pression Humidité
    00:00 +5°C° 0 mm 1 m/s 764 mmHg 83%
    01:00 +4°C° 0 mm 2 m/s 763 mmHg 84%
    02:00 +4°C° 0 mm 2 m/s 763 mmHg 85%
    03:00 +4°C° 0 mm 2 m/s 763 mmHg 86%
    04:00 +4°C° 0 mm 2 m/s 763 mmHg 88%
    05:00 +4°C° 0 mm 2 m/s 763 mmHg 89%
    06:00 +3°C° 0 mm 3 m/s 762 mmHg 90%
    07:00 +4°C° 0 mm 3 m/s 762 mmHg 90%
    08:00 +5°C° 0 mm 4 m/s 762 mmHg 90%
    09:00 +6°C° 0 mm 4 m/s 762 mmHg 90%
    10:00 +7°C° 0 mm 4 m/s 762 mmHg 88%
    11:00 +8°C° 0 mm 5 m/s 762 mmHg 85%
    12:00 +9°C° 0 mm 5 m/s 761 mmHg 82%
    13:00 +9°C° 0 mm 5 m/s 761 mmHg 82%
    14:00 +9°C° 0 mm 5 m/s 760 mmHg 82%
    15:00 +10°C° 0 mm 4 m/s 760 mmHg 82%
    16:00 +10°C° 0 mm 4 m/s 760 mmHg 84%
    17:00 +10°C° 0 mm 4 m/s 759 mmHg 86%
    18:00 +8°C° 0 mm 5 m/s 759 mmHg 87%
    19:00 +8°C° 0 mm 5 m/s 759 mmHg 88%
    20:00 +8°C° 0 mm 4 m/s 759 mmHg 90%
    21:00 +8°C° 0 mm 4 m/s 759 mmHg 91%
    22:00 +8°C° 0 mm 5 m/s 759 mmHg 92%
    23:00 +8°C° 0 mm 5 m/s 759 mmHg 93%

    Demain, 21 Novembre, Mardi

    Heure Température Précipitation Vent Pression Humidité
    00:00 +8°C° 0 mm 5 m/s 759 mmHg 94%
    01:00 +8°C° 0 mm 5 m/s 759 mmHg 93%
    02:00 +8°C° 0 mm 4 m/s 759 mmHg 92%
    03:00 +8°C° 0 mm 4 m/s 759 mmHg 91%
    04:00 +8°C° 0 mm 4 m/s 758 mmHg 91%
    05:00 +8°C° 0 mm 4 m/s 758 mmHg 91%
    06:00 +7°C° 0 mm 4 m/s 758 mmHg 91%
    07:00 +7°C° 0 mm 4 m/s 758 mmHg 90%
    08:00 +8°C° 0 mm 4 m/s 758 mmHg 88%
    09:00 +8°C° 0 mm 4 m/s 759 mmHg 87%
    10:00 +8°C° 0 mm 4 m/s 758 mmHg 84%
    11:00 +9°C° 0 mm 5 m/s 758 mmHg 81%
    12:00 +10°C° 0 mm 5 m/s 758 mmHg 78%
    13:00 +10°C° 0 mm 5 m/s 757 mmHg 77%
    14:00 +11°C° 0 mm 4 m/s 757 mmHg 77%
    15:00 +12°C° 0 mm 4 m/s 756 mmHg 77%
    16:00 +11°C° 0 mm 4 m/s 756 mmHg 81%
    17:00 +10°C° 0 mm 4 m/s 756 mmHg 84%
    18:00 +8°C° 0 mm 4 m/s 756 mmHg 88%
    19:00 +8°C° 0 mm 4 m/s 756 mmHg 89%
    20:00 +8°C° 0 mm 4 m/s 755 mmHg 89%
    21:00 +8°C° 0 mm 4 m/s 755 mmHg 90%
    22:00 +8°C° 0 mm 4 m/s 755 mmHg 91%
    23:00 +7°C° 0 mm 4 m/s 755 mmHg 91%

    Après-demain, 22 Novembre, Mercredi

    Heure Température Précipitation Vent Pression Humidité
    00:00 +7°C° 0 mm 4 m/s 755 mmHg 92%
    01:00 +7°C° 0 mm 4 m/s 755 mmHg 91%
    02:00 +7°C° 0 mm 4 m/s 755 mmHg 91%
    03:00 +7°C° 0 mm 4 m/s 754 mmHg 91%
    04:00 +6°C° 0 mm 4 m/s 754 mmHg 91%
    05:00 +6°C° 0 mm 4 m/s 754 mmHg 90%
    06:00 +6°C° 0 mm 4 m/s 754 mmHg 90%
    07:00 +6°C° 0 mm 4 m/s 753 mmHg 85%
    08:00 +7°C° 0 mm 5 m/s 753 mmHg 81%
    09:00 +7°C° 0 mm 5 m/s 753 mmHg 76%
    10:00 +9°C° 0 mm 5 m/s 753 mmHg 69%
    11:00 +10°C° 0 mm 6 m/s 752 mmHg 62%
    12:00 +13°C° 0 mm 6 m/s 752 mmHg 54%
    13:00 +13°C° 0 mm 6 m/s 751 mmHg 53%
    14:00 +13°C° 0 mm 6 m/s 751 mmHg 51%
    15:00 +13°C° 0 mm 6 m/s 750 mmHg 50%
    16:00 +13°C° 0 mm 6 m/s 750 mmHg 50%
    17:00 +13°C° 0 mm 6 m/s 750 mmHg 51%
    18:00 +11°C° 0 mm 7 m/s 750 mmHg 51%
    19:00 +12°C° 0 mm 7 m/s 750 mmHg 52%
    20:00 +12°C° 0 mm 7 m/s 750 mmHg 53%
    21:00 +12°C° 0 mm 7 m/s 751 mmHg 54%
    22:00 +12°C° 0 mm 7 m/s 751 mmHg 55%
    23:00 +12°C° 0 mm 7 m/s 751 mmHg 56%

    23 Novembre, Jeudi

    Heure Température Précipitation Vent Pression Humidité
    00:00 +13°C° 0 mm 8 m/s 751 mmHg 57%
    01:00 +14°C° 0 mm 7 m/s 751 mmHg 59%
    02:00 +12°C° 0 mm 7 m/s 752 mmHg 61%
    03:00 +12°C° 0 mm 7 m/s 752 mmHg 63%
    04:00 +12°C° 0 mm 7 m/s 753 mmHg 66%
    05:00 +13°C° 0 mm 6 m/s 753 mmHg 70%
    06:00 +13°C° 0 mm 6 m/s 753 mmHg 73%
    07:00 +13°C° 0 mm 6 m/s 754 mmHg 74%
    08:00 +13°C° 0 mm 6 m/s 755 mmHg 75%
    09:00 +13°C° 0 mm 6 m/s 755 mmHg 76%
    10:00 +14°C° 0 mm 7 m/s 755 mmHg 74%
    11:00 +15°C° 0 mm 7 m/s 756 mmHg 72%
    12:00 +15°C° 0 mm 7 m/s 756 mmHg 70%
    13:00 +15°C° 0 mm 6 m/s 756 mmHg 70%
    14:00 +15°C° 0 mm 5 m/s 756 mmHg 69%
    15:00 +15°C° 0 mm 5 m/s 756 mmHg 69%
    16:00 +15°C° 0 mm 5 m/s 756 mmHg 69%
    17:00 +14°C° 0 mm 5 m/s 756 mmHg 70%
    18:00 +13°C° 0 mm 5 m/s 756 mmHg 70%
    19:00 +13°C° 0 mm 5 m/s 756 mmHg 69%
    20:00 +13°C° 0 mm 5 m/s 756 mmHg 68%
    21:00 +13°C° 0 mm 5 m/s 756 mmHg 67%
    22:00 +13°C° 0 mm 5 m/s 756 mmHg 68%
    23:00 +13°C° 0 mm 5 m/s 756 mmHg 69%

    24 Novembre, Vendredi

    Heure Température Précipitation Vent Pression Humidité
    00:00 +13°C° 0 mm 6 m/s 756 mmHg 70%
    01:00 +13°C° 0 mm 5 m/s 756 mmHg 71%
    02:00 +13°C° 0 mm 5 m/s 756 mmHg 72%
    03:00 +12°C° 0 mm 5 m/s 756 mmHg 73%
    04:00 +11°C° 0 mm 6 m/s 756 mmHg 72%
    05:00 +11°C° 0 mm 6 m/s 756 mmHg 71%
    06:00 +10°C° 0 mm 6 m/s 755 mmHg 70%
    07:00 +11°C° 0 mm 6 m/s 755 mmHg 68%
    08:00 +11°C° 0 mm 6 m/s 755 mmHg 66%
    09:00 +11°C° 0 mm 7 m/s 755 mmHg 63%
    10:00 +12°C° 0 mm 7 m/s 755 mmHg 60%
    11:00 +14°C° 0 mm 7 m/s 755 mmHg 57%
    12:00 +15°C° 0 mm 6 m/s 754 mmHg 54%
    13:00 +15°C° 0 mm 6 m/s 754 mmHg 55%
    14:00 +15°C° 0 mm 6 m/s 754 mmHg 56%
    15:00 +15°C° 0 mm 5 m/s 753 mmHg 57%
    16:00 +15°C° 0 mm 5 m/s 753 mmHg 58%
    17:00 +15°C° 0 mm 6 m/s 753 mmHg 60%
    18:00 +14°C° 0 mm 6 m/s 753 mmHg 61%
    19:00 +14°C° 0 mm 6 m/s 753 mmHg 61%
    20:00 +14°C° 0 mm 6 m/s 753 mmHg 60%
    21:00 +14°C° 0 mm 6 m/s 752 mmHg 60%
    22:00 +14°C° 0 mm 6 m/s 752 mmHg 59%
    23:00 +14°C° 0 mm 6 m/s 752 mmHg 59%

    25 Novembre, Samedi

    Heure Température Précipitation Vent Pression Humidité
    00:00 +14°C° 0 mm 6 m/s 752 mmHg 58%
    01:00 +14°C° 0 mm 7 m/s 751 mmHg 60%
    02:00 +14°C° 0 mm 7 m/s 751 mmHg 61%
    03:00 +13°C° 0 mm 8 m/s 750 mmHg 62%
    04:00 +13°C° 0 mm 8 m/s 750 mmHg 60%
    05:00 +13°C° 0 mm 8 m/s 750 mmHg 58%
    06:00 +13°C° 0 mm 9 m/s 749 mmHg 56%
    07:00 +13°C° 0,1 mm 9 m/s 750 mmHg 59%
    08:00 +13°C° 0,1 mm 9 m/s 751 mmHg 62%
    09:00 +13°C° 0,1 mm 9 m/s 751 mmHg 64%
    10:00 +13°C° 0,1 mm 9 m/s 752 mmHg 60%
    11:00 +13°C° 0,1 mm 10 m/s 752 mmHg 55%
    12:00 +14°C° 0,1 mm 10 m/s 752 mmHg 51%
    13:00 +13°C° 0 mm 10 m/s 753 mmHg 51%
    14:00 +13°C° 0 mm 9 m/s 753 mmHg 52%
    15:00 +13°C° 0 mm 9 m/s 754 mmHg 52%
    16:00 +12°C° 0 mm 8 m/s 755 mmHg 55%
    17:00 +11°C° 0 mm 7 m/s 756 mmHg 58%
    18:00 +10°C° 0 mm 6 m/s 757 mmHg 61%
    19:00 +9°C° 0 mm 5 m/s 758 mmHg 64%
    20:00 +8°C° 0 mm 4 m/s 759 mmHg 68%
    21:00 +8°C° 0 mm 3 m/s 760 mmHg 71%
    22:00 +8°C° 0 mm 3 m/s 760 mmHg 72%
    23:00 +7°C° 0 mm 2 m/s 760 mmHg 73%
    Voir plus